This is the latest recevied weather packets stored in our database for station/object GW1479. If no packets are shown the sender has not sent any weather packets the latest 10 day(s).
| Time | Temp. | Humidity | Pressure | Rain* | Wind** | Luminosity | Snow |
|---|---|---|---|---|---|---|---|
| 1777873000 | 7.78° C | 88% | 1014.2 hPa | 0 mm | - | - | - |
| 1777868671 | 7.78° C | 87% | 1014.5 hPa | 0 mm | - | - | - |
| 1777867605 | 7.78° C | 85% | 1014.5 hPa | 0 mm | - | - | - |
| 1777865773 | 7.22° C | 85% | 1014.5 hPa | 0 mm | - | - | - |
| 1777865436 | 7.22° C | 85% | 1014.5 hPa | 0 mm | - | - | - |
| 1777863254 | 6.67° C | 87% | 1014.5 hPa | 0 mm | - | - | - |
| 1777862540 | 6.67° C | 85% | 1014.5 hPa | 0 mm | - | - | - |
| 1777861827 | 6.67° C | 85% | 1014.5 hPa | 0 mm | - | - | - |
| 1777861114 | 7.78° C | 83% | 1014.5 hPa | 0 mm | - | - | - |
| 1777860380 | 8.33° C | 81% | 1014.5 hPa | 0 mm | - | - | - |
| 1777857134 | 10° C | 70% | 1014.5 hPa | 0 mm | - | - | - |
| 1777856079 | 10.56° C | 68% | 1014.2 hPa | 0 mm | - | - | - |
| 1777849972 | 15.56° C | 47% | 1014.2 hPa | 0 mm | - | - | - |
| 1777848143 | 16.67° C | 44% | 1014.2 hPa | 0 mm | - | - | - |
| 1777836981 | 15° C | 41% | 1015.9 hPa | 0 mm | - | - | - |
| 1777836643 | 16.67° C | 43% | 1015.9 hPa | 0 mm | - | - | - |
| 1777832334 | 15° C | 45% | 1016.5 hPa | 0 mm | - | - | - |
| 1777830500 | 14.44° C | 44% | 1016.9 hPa | 0 mm | - | - | - |
| 1777824410 | 11.67° C | 53% | 1018.2 hPa | 0 mm | - | - | - |
| 1777823677 | 11.67° C | 52% | 1018.6 hPa | 0 mm | - | - | - |
| 1777821138 | 10.56° C | 62% | 1018.9 hPa | 0 mm | - | - | - |
| 1777820790 | 10° C | 61% | 1018.9 hPa | 0 mm | - | - | - |
| 1777820078 | 10° C | 60% | 1018.9 hPa | 0 mm | - | - | - |
| 1777818641 | 9.44° C | 66% | 1018.6 hPa | 0 mm | - | - | - |
| 1777816828 | 9.44° C | 70% | 1018.9 hPa | 0 mm | - | - | - |
* Rain since midnight (hover to see other rain measurements)
** Current wind speed in m/s (hover to see current wind gust speed)